Regional Weather Roundup
Issued by NWS Newport/Morehead, NC

Current Version | Previous Version | Graphics & Text | Print | Product List | Glossary Off
Versions: 1 2 3 4 5 6 7 8 9 10 11 12 13 14 15 16 17 18 19 20 21 22 23 24 25 26 27 28 29 30 31 32 33 34 35 36 37 38 39 40 41 42 43 44 45 46 47 48 49 50

000
ASUS42 KMHX 230625
RWRMHX
WEATHER ROUNDUP FOR EASTERN NORTH CAROLINA
NATIONAL WEATHER SERVICE NEWPORT/MOREHEAD CITY NC
100 AM EST FRI FEB 23 2018

NOTE: "FAIR" INDICATES FEW OR NO CLOUDS BELOW 12,000 FEET
WITH NO SIGNIFICANT WEATHER AND/OR OBSTRUCTIONS TO VISIBILITY

NCZ015>017-031-032-045>047-102-103-230700-
NORTH COAST

CITY           SKY/WX    TMP DP  RH WIND       PRES   REMARKS
EDENTON        CLOUDY    50  48  94 NE7       30.50S
ELIZABETH CITY CLOUDY    47  47 100 N13       30.50F FOG
KITTY HAWK     FOG      N/A N/A N/A CALM      30.47F VSB 3/4
MANTEO         CLOUDY    49  49 100 NE7       30.49F

$$

NCZ045>047-081-094-103-104-230700-
CENTRAL COAST

CITY           SKY/WX    TMP DP  RH WIND       PRES   REMARKS
FRISCO         MOCLDY    65  64  97 W3        30.46S

$$

NCZ095-097-098-100-101-230700-
SOUTHERN COAST

CITY           SKY/WX    TMP DP  RH WIND       PRES   REMARKS
BEAUFORT       FOG       61  60  97 CALM      30.46S VSB 1/2
CEDAR ISLAND   NOT AVBL
JACKSONVILLE   FAIR      61  60  97 CALM      30.45S FOG
PINEY ISLAND   NOT AVBL
WILMINGTON     FOG       59  59 100 CALM      30.45R VSB 1/2


$$

NCZ011>013-027>030-043-044-078>080-089-090>093-098-230700-
COASTAL PLAIN

CITY           SKY/WX    TMP DP  RH WIND       PRES   REMARKS
AHOSKIE        CLOUDY    48  48 100 NE5       30.50S
CLINTON        FAIR      60  60 100 CALM      30.45S
ELIZABETHTOWN  NOT AVBL
GOLDSBORO      FAIR      62  59  92 S3        30.42F
GREENVILLE     FAIR      61  61 100 CALM      30.44S
HAVELOCK       PTCLDY    57  57 100 CALM      30.47S FOG
KENANSVILLE    NOT AVBL
KINSTON        FAIR      61  59  95 CALM      30.45S
NEW BERN       FAIR      57  57 100 CALM      30.46F
RICHLANDS      FOG       59  59 100 CALM      30.45F VSB 3/4
ROCKY MOUNT    MOCLDY    63  60  90 NE8       30.44S
WASHINGTON     CLOUDY    64  61  88 CALM      30.45S
WHITEVILLE     FAIR      58  57  96 CALM      30.43F

$$

AMZ130-135-150-152-154-156-158-170-250-252-270-ANZ085-086-088-633-658-670-230700-
MARINE OBSERVATIONS

STATION/POSITION TIME  TEMP    WIND        PRES    WAVE   SWELL
                       AIR SEA DIR/SP/G            HT/PER HT/PER
                 (UTC) (F)     (DEG/KT/KT) (MB)    (FT/S) (FT/S)
CHESAPEAKE LIGHT NOT AVBL
64 E VA BEACH    0550   51 51   60/  6/  8 1031.8    4/14   3/14
DUCK             0600      46  350/ 14/ 16 1031.9
2 E DUCK         0600      46                N/A     5/ 5   2/15
OREGON INLET     0600   47 66  350/  7/ 10 1032.0
13E OREGON INLT  0548      47                N/A     3/15   3/15
HATTERAS CG      0600   64 61  250/  4/  4 1031.4
DIAMOND BUOY     0610   73 75  240/ 10/ 14 1031.6
CAPE LOOKOUT     0600          180/  5/  5 1031.6
BEAUFORT LAB     0600   62 60  310/  1/  1 1031.5
30 SE NEW RVR IN NOT AVBL
30 SE NEW RVR IN 0600      71                N/A     4/ 8   2/15
27 SE WRIGHTSVLE 0508   70 69  200/ 10/ 14 1030.9
5 SE WRIGHTSVLE  0608   61 59  220/  2/  4 1030.8
225 S CAPE HAT   0550   72 72  160/  8/ 10 1031.4    5/10   5/10
41 SE CHARLESTON 0610   70 68   90/  2/  4 1030.0

$$




USA.gov is the U.S. government's official web portal to all federal, state and local government web resources and services.